Hourly Data Report for September 06, 2019

TORONTO CITY
ONTARIO
Current Station Operator: ECCC - MSC

43°40'00.000" N
79°24'00.000" W
112.50 m
6158355
71508
XTO

Download Data

Hourly Data (September 2019)
Hourly Data Report for September 6, 2019
TIME
LST
Temp Definition
°C
Dew Point Definition
°C
Rel Hum Definition
%
Precip. Amount Definition
mm

Wind Dir Definition
10's deg

Wind Spd Definition
km/h
Visibility Definition
km
Stn Press Definition
kPa
Hmdx Definition


Wind Chill Definition


Weather Definition


00:00 15.6 8.6 63 0.0       100.39     LegendNANA
01:00 15.2 9.2 67 0.0       100.31     LegendNANA
02:00 15.0 9.9 72 0.0       100.30     LegendNANA
03:00 15.2 9.5 68 0.0       100.27     LegendNANA
04:00 15.0 9.6 70 0.0       100.25     LegendNANA
05:00 14.5 9.5 72 0.0       100.21     LegendNANA
06:00 15.1 10.3 73 0.0       100.19     LegendNANA
07:00 16.2 11.5 74 0.0       100.16     LegendNANA
08:00 17.1 12.1 72 0.0       100.08     LegendNANA
09:00 19.1 12.1 64 0.0       100.06     LegendNANA
10:00 18.9 12.1 65 0.0       100.07     LegendNANA
11:00 20.0 12.2 61 0.0       100.04     LegendNANA
12:00 19.2 11.3 60 0.0       99.98     LegendNANA
13:00 18.2 12.0 67 0.0       99.96     LegendNANA
14:00 18.0 13.1 73 0.0       99.91     LegendNANA
15:00 18.0 14.0 78 0.0       99.87     LegendNANA
16:00 17.6 13.3 76 0.5       99.86     LegendNANA
17:00 17.7 13.5 77 0.0       99.87     LegendNANA
18:00 17.3 11.4 68 0.0       99.89     LegendNANA
19:00 16.5 11.2 71 0.0       99.90     LegendNANA
20:00 16.2 11.0 71 0.0       99.91     LegendNANA
21:00 15.8 11.2 74 0.0       99.94     LegendNANA
22:00 15.2 10.8 75 0.0       99.91     LegendNANA
23:00 14.6 10.9 78 0.0       99.90     LegendNANA

Notes on Data Quality.

Legend

  • E = Estimated
  • M = Missing
  • NA = Not Available*
  • [empty] = Indicates an unobserved value
Date modified: